Location: Chandolas
(44.4033°N, 4.2533°E)
Time: 14:29:53
(UTC+00:00)

Gbstr 26 Del rocket - Pass Details

Date: 15 November 2019
Orbit: 493 x 1264 km, 51.8° (Epoch: 13 December)

Event Time Altitude Azimuth Distance (km) Brightness Sun altitude
Exits shadow 04:17:13 50° 116° (ESE) 648 3.4 -25.2°
Drops below altitude 10° 04:20:26 10° 66° (ENE) 1,691 6.1 -24.6°
Sets 04:22:35 0° 61° (ENE) 2,576 7.2 -24.2°
